Weather History for Glenwood, MN

Change the Weather History Date:

Wednesday, February 12, 2014

  Actual Average Record
Temperature  
Mean Temperature 9 °F -  
Max Temperature 17 °F 23 °F 53 °F (2005)
Min Temperature 1 °F 2 °F -28 °F (1955)
Degree Days  
Heating Degree Days 56    
Moisture  
Dew Point 5 °F    
Average Humidity 79    
Maximum Humidity 93    
Minimum Humidity 62    
Precipitation  
Precipitation 0.00 in - - ()
Sea Level Pressure  
Sea Level Pressure 29.95 in    
Wind  
Wind Speed 8 mph (WSW)    
Max Wind Speed 25 mph    
Max Gust Speed 30 mph    
Visibility 9 miles    
Events Snow    
Averages and records for this station are not official NWS values.
T = Trace of Precipitation, MM = Missing Value Source: NWS Daily Summary

Daily Weather History Graph

Daily Weather History Graph

Search for Another Location

Airport:

Trip Planner

Search our weather history database for the weather conditions in past years. The results will help you decide how hot, cold, wet, or windy it might be!

Date:

Astronomy

Feb. 12, 2014 Rise Set
Actual Time 7:27 AM CST 5:43 PM CST
Civil Twilight 6:57 AM CST 6:14 PM CST
Nautical Twilight 6:22 AM CST 6:49 PM CST
Astronomical Twilight 5:47 AM CST 7:24 PM CST
Moon 3:56 PM CST (2/12) 5:47 AM CST (2/12)
Length of Visible Light 11h 17m
Length of Day
10h 16m
Waxing Gibbous, 95% of the Moon is Illuminated
Feb 12
Waxing Gibbous
Feb 14
Full
Feb 22
Last Quarter
Mar 1
New
Mar 8
First Quarter

Hourly Weather History & Observations

Time (CST) Temp. Windchill Dew Point Humidity Pressure Visibility Wind Dir Wind Speed Gust Speed Precip Events Conditions
12:13 AM 17.6 °F 5.0 °F 14.0 °F 86% 29.93 in 10.0 mi South 11.5 mph - N/A   Overcast
12:33 AM 17.6 °F 6.4 °F 14.0 °F 86% 29.94 in 10.0 mi South 9.2 mph - N/A   Overcast
12:53 AM 17.6 °F 8.2 °F 14.0 °F 86% 29.95 in 10.0 mi SSW 6.9 mph - N/A   Scattered Clouds
1:13 AM 17.6 °F 8.2 °F 15.8 °F 93% 29.96 in 10.0 mi SSW 6.9 mph - N/A   Scattered Clouds
1:33 AM 17.6 °F 7.3 °F 15.8 °F 93% 29.97 in 10.0 mi SW 8.1 mph - N/A   Scattered Clouds
1:53 AM 17.6 °F 7.3 °F 15.8 °F 93% 29.97 in 10.0 mi SSW 8.1 mph - N/A   Scattered Clouds
2:13 AM 17.6 °F 10.7 °F 15.8 °F 93% 29.97 in 10.0 mi WSW 4.6 mph - N/A   Scattered Clouds
2:34 AM 17.6 °F - 15.8 °F 93% 29.97 in 10.0 mi Calm Calm - N/A   Scattered Clouds
2:53 AM 17.6 °F 12.3 °F 15.8 °F 93% 29.97 in 10.0 mi SW 3.5 mph - N/A   Clear
3:13 AM 17.6 °F - 15.8 °F 93% 29.98 in 10.0 mi Calm Calm - N/A   Clear
3:33 AM 17.6 °F 12.3 °F 15.8 °F 93% 29.99 in 10.0 mi WSW 3.5 mph - N/A   Clear
3:53 AM 17.6 °F 9.3 °F 15.8 °F 93% 30.00 in 10.0 mi West 5.8 mph - N/A   Clear
4:13 AM 17.6 °F 7.3 °F 15.8 °F 93% 30.02 in 7.0 mi WNW 8.1 mph - N/A   Clear
4:33 AM 17.6 °F 4.3 °F 15.8 °F 93% 30.02 in 7.0 mi NW 12.7 mph - N/A   Clear
4:53 AM 15.8 °F 0.9 °F 12.2 °F 86% 30.03 in 7.0 mi NNW 15.0 mph - N/A   Scattered Clouds
5:13 AM 12.2 °F -3.7 °F 8.6 °F 85% 30.04 in 10.0 mi NW 15.0 mph - N/A   Scattered Clouds
5:33 AM 10.4 °F -4.8 °F 5.0 °F 79% 30.05 in 10.0 mi NNW 12.7 mph - N/A   Clear
5:54 AM 8.6 °F -8.9 °F 1.4 °F 73% 30.06 in 10.0 mi NNW 16.1 mph - N/A   Clear
6:13 AM 8.6 °F -7.7 °F 1.4 °F 73% 30.06 in 10.0 mi NNW 13.8 mph - N/A   Clear
6:33 AM 6.8 °F -8.6 °F -0.4 °F 72% 30.06 in 10.0 mi North 11.5 mph - N/A   Clear
6:53 AM 5.0 °F -11.6 °F -0.4 °F 78% 30.05 in 10.0 mi North 12.7 mph - N/A   Clear
7:13 AM 3.2 °F -9.1 °F -2.2 °F 78% 30.06 in 10.0 mi NNW 6.9 mph - N/A   Clear
7:33 AM 3.2 °F -10.3 °F -2.2 °F 78% 30.07 in 10.0 mi NNW 8.1 mph - N/A   Clear
7:53 AM 1.4 °F -12.5 °F -2.2 °F 85% 30.09 in 10.0 mi NNW 8.1 mph - N/A   Clear
8:13 AM 1.4 °F -12.5 °F -2.2 °F 85% 30.10 in 10.0 mi NNW 8.1 mph - N/A   Clear
8:33 AM 1.4 °F -11.3 °F -4.0 °F 78% 30.09 in 10.0 mi NNW 6.9 mph - N/A   Clear
8:53 AM 1.4 °F -12.5 °F -4.0 °F 78% 30.08 in 10.0 mi NW 8.1 mph - N/A   Clear
9:13 AM 1.4 °F -12.5 °F -4.0 °F 78% 30.09 in 10.0 mi NW 8.1 mph - N/A   Clear
9:34 AM 3.2 °F -10.3 °F -2.2 °F 78% 30.10 in 10.0 mi NW 8.1 mph - N/A   Clear
9:53 AM 3.2 °F -10.3 °F -4.0 °F 72% 30.10 in 10.0 mi NW 8.1 mph - N/A   Clear
10:13 AM 5.0 °F -8.1 °F -2.2 °F 72% 30.09 in 10.0 mi NW 8.1 mph - N/A   Clear
10:33 AM 5.0 °F -4.1 °F -2.2 °F 72% 30.09 in 10.0 mi NW 4.6 mph - N/A   Clear
10:53 AM 6.8 °F -3.5 °F -2.2 °F 67% 30.09 in 10.0 mi WNW 5.8 mph - N/A   Clear
11:14 AM 6.8 °F -4.8 °F -2.2 °F 67% 30.09 in 10.0 mi NW 6.9 mph - N/A   Clear
11:33 AM 6.8 °F -3.5 °F -2.2 °F 67% 30.08 in 10.0 mi NW 5.8 mph - N/A   Clear
11:53 AM 8.6 °F -1.3 °F -0.4 °F 67% 30.07 in 10.0 mi WNW 5.8 mph - N/A   Clear
12:13 PM 8.6 °F -1.3 °F -0.4 °F 67% 30.06 in 10.0 mi NW 5.8 mph - N/A   Clear
12:33 PM 8.6 °F 0.1 °F -0.4 °F 67% 30.05 in 10.0 mi WNW 4.6 mph - N/A   Clear
12:53 PM 10.4 °F 4.0 °F -0.4 °F 62% 30.04 in 10.0 mi WNW 3.5 mph - N/A   Clear
1:13 PM 10.4 °F 4.0 °F -0.4 °F 62% 30.03 in 10.0 mi West 3.5 mph - N/A   Clear
1:33 PM 10.4 °F 2.2 °F -0.4 °F 62% 30.03 in 10.0 mi West 4.6 mph - N/A   Clear
1:53 PM 10.4 °F - -0.4 °F 62% 30.01 in 10.0 mi Calm Calm - N/A   Clear
2:13 PM 12.2 °F - 1.4 °F 62% 29.98 in 10.0 mi Calm Calm - N/A   Clear
2:33 PM 12.2 °F - 1.4 °F 62% 29.97 in 10.0 mi Calm Calm - N/A   Clear
2:53 PM 12.2 °F - 1.4 °F 62% 29.96 in 10.0 mi Calm Calm - N/A   Clear
3:14 PM 12.2 °F 6.1 °F 1.4 °F 62% 29.95 in 10.0 mi SSE 3.5 mph - N/A   Clear
3:33 PM 12.2 °F - 1.4 °F 62% 29.93 in 10.0 mi Calm Calm - N/A   Clear
3:53 PM 12.2 °F - 1.4 °F 62% 29.92 in 10.0 mi Calm Calm - N/A   Clear
4:13 PM 12.2 °F - 3.2 °F 67% 29.91 in 10.0 mi Calm Calm - N/A   Clear
4:33 PM 10.4 °F - 3.2 °F 73% 29.90 in 10.0 mi Calm Calm - N/A   Clear
4:54 PM 12.2 °F - 3.2 °F 67% 29.89 in 10.0 mi Calm Calm - N/A   Clear
5:13 PM 10.4 °F - 1.4 °F 67% 29.88 in 10.0 mi Calm Calm - N/A   Clear
5:33 PM 10.4 °F 2.2 °F 1.4 °F 67% 29.88 in 10.0 mi SE 4.6 mph - N/A   Clear
5:53 PM 8.6 °F -4.7 °F 1.4 °F 73% 29.86 in 10.0 mi ESE 9.2 mph - N/A   Clear
6:13 PM 8.6 °F -3.7 °F 1.4 °F 73% 29.86 in 10.0 mi ESE 8.1 mph - N/A   Clear
6:34 PM 6.8 °F -4.8 °F 1.4 °F 79% 29.87 in 10.0 mi SE 6.9 mph - N/A   Clear
6:53 PM 8.6 °F -4.7 °F 3.2 °F 79% 29.86 in 10.0 mi SE 9.2 mph - N/A   Clear
7:13 PM 8.6 °F -6.3 °F 3.2 °F 79% 29.84 in 10.0 mi SE 11.5 mph - N/A   Clear
7:34 PM 8.6 °F -5.5 °F 3.2 °F 79% 29.84 in 10.0 mi SSE 10.4 mph - N/A   Clear
7:53 PM 8.6 °F -5.5 °F 5.0 °F 85% 29.83 in 10.0 mi SSE 10.4 mph - N/A   Clear
8:13 PM 8.6 °F -3.7 °F 5.0 °F 85% 29.82 in 10.0 mi SE 8.1 mph - N/A   Clear
8:33 PM 8.6 °F -5.5 °F 6.8 °F 92% 29.79 in 5.0 mi SE 10.4 mph - N/A Snow Light Snow
8:53 PM 8.6 °F -7.0 °F 6.8 °F 92% 29.78 in 5.0 mi SE 12.7 mph - N/A Snow Light Snow
9:13 PM 10.4 °F -5.4 °F 8.6 °F 92% 29.77 in 2.5 mi SSE 13.8 mph - N/A   Overcast
9:33 PM 10.4 °F -5.4 °F 8.6 °F 92% 29.75 in 3.0 mi SE 13.8 mph - N/A   Overcast
9:53 PM 12.2 °F -5.3 °F 10.4 °F 92% 29.72 in 2.5 mi SE 18.4 mph - N/A   Overcast
10:14 PM 14.0 °F -2.5 °F 12.2 °F 93% 29.71 in 2.5 mi SSE 17.3 mph - N/A Snow Light Snow
10:33 PM 14.0 °F -3.4 °F 12.2 °F 93% 29.70 in 2.5 mi SSE 19.6 mph 23.0 mph N/A Snow Light Snow
10:53 PM 15.8 °F -1.5 °F 12.2 °F 86% 29.67 in 2.0 mi SE 20.7 mph - N/A Snow Light Snow
11:13 PM 15.8 °F -1.5 °F 12.2 °F 86% 29.64 in 2.5 mi SE 20.7 mph - N/A   Overcast
11:33 PM 15.8 °F -3.1 °F 14.0 °F 93% 29.61 in 2.5 mi SE 25.3 mph 28.8 mph N/A   Overcast
11:53 PM 15.8 °F -2.7 °F 14.0 °F 93% 29.58 in 3.0 mi SE 24.2 mph 29.9 mph N/A   Scattered Clouds